LGRX

Details ICAO LGRX (GPA)
Name ARAXOS
Region Greece
Timezone Europe/Athens (UTC+3.0)
Plans Departing 30
Arriving 33
Stats Elevation 46 ft / 14 m (AMSL)
Location 38.151093° 21.426401°
Runways 2
Magnetic Variation 4.224° E
Sunrise 2018-05-26 03:17:24 UTC / 2018-05-26 06:17:24 Local
Sunset 2018-05-26 17:48:08 UTC / 2018-05-26 20:48:08 Local
Advertisement - Login to hide

Runways

ID Width Length Bearing (true) Bearing (mag) Surface Threshold Offset Overrun Length
18L 70 ft / 21 m 11,021 ft / 3,359 m 183.19° 178.97° Asphalt 80 ft / 24 m 135 ft / 41 m
18R 148 ft / 45 m 11,019 ft / 3,359 m 182.93° 178.71° Asphalt 653 ft / 199 m 230 ft / 70 m
36L 148 ft / 45 m 11,019 ft / 3,359 m 2.93° 358.71° Asphalt 669 ft / 204 m 165 ft / 50 m
36R 70 ft / 21 m 11,021 ft / 3,359 m 3.19° 358.97° Asphalt 80 ft / 24 m 150 ft / 46 m

Map

Weather


0- 5 10 15 20 25 30 35+ Temperature / ° C

Clouds and Precipitation
Forecast for 2018-05-26 06:00 UTC. Updated an hour ago

Ground ~20,000 ft ~40,000 ft Winds

METAR

LGRX 260620Z 00000KT CAVOK 25/16 Q1014

TAF

Not found

Frequencies

Tower 125.25 MHz TWR
Approach 120.65 MHz ANDRAVIDA APP
Tower 122.10 MHz TWR
Approach 122.10 MHz ANDRAVIDA APP
Warning: Do not use this data for real-world aviation or navigation. No guarantee of current accuracy is given.